User: anonymous   Login
Location: Bojarzin Observatory
(39.7980°N, 89.7627°W)
Time: 09:34:26
(UTC-05:00)
Language:

ISS - Orbit

View from above orbital plane
View from above orbital plane
View from above satellite
View from above satellite

Ground track
Ground track

The orbit data is extracted from the following two-line orbital elements,

1 25544U 98067A   15142.25059100  .00015072  00000-0  22591-3 0  9992
2 25544 051.6450 213.5319 0003999 331.7191 069.0369 15.55150380944005
Epoch (UTC): 22 May 2015 06:00:51
Eccentricity: 0.0003999
inclination: 51.6450°
perigee height: 399 km
apogee height: 404 km
right ascension of ascending node: 213.5319°
argument of perigee: 331.7191°
revolutions per day: 15.55150380
mean anomaly at epoch: 69.0369°
orbit number at epoch: 94400

The dashed part of the orbit path shows where the satellite is in the earth's shadow,  

DLR